Printer-friendly version

IAU Minor Planet Center

Minor Planet Center

MPEC 2006-D44 : 2006 DT14

The following Minor Planet Electronic Circular may be linked-to from your own Web pages, but must not otherwise be redistributed electronically.


Read MPEC 2006-D43 Read MPEC 2006-D45


M.P.E.C. 2006-D44                                Issued 2006 Feb. 25, 15:31 UT

     The Minor Planet Electronic Circulars contain information on unusual
         minor planets and routine data on comets.  They are published
   on behalf of Commission 20 of the International Astronomical Union by the
          Minor Planet Center, Smithsonian Astrophysical Observatory,
                          Cambridge, MA 02138, U.S.A.

                  Supported in part by the Brinson Foundation
                  Supported in part by the TABASGO Foundation
             Prepared using the Tamkin Foundation Computer Network

                              MPC@CFA.HARVARD.EDU
          URL http://cfa-www.harvard.edu/iau/mpc.html  ISSN 1523-6714

                                   2006 DT14

Observations:
     K06D14T* C2006 02 24.39870 14 00 03.74 +17 46 53.0          19.6 V ED044703
     K06D14T  C2006 02 24.40744 14 00 05.72 +17 47 00.0          18.2 V ED044703
     K06D14T  C2006 02 24.41623 14 00 07.66 +17 47 07.4          20.2 V ED044703
     K06D14T  C2006 02 24.42506 14 00 09.64 +17 47 14.1          19.4 V ED044703
     K06D14T  C2006 02 24.47407 14 00 20.48 +17 47 58.6          21.3 V ED044703
     K06D14T  C2006 02 24.47697 14 00 21.13 +17 48 00.1          20.6 V ED044703
     K06D14T  C2006 02 24.47979 14 00 21.63 +17 48 02.3          20.6 V ED044703
     K06D14T  C2006 02 24.48259 14 00 22.32 +17 48 04.3          20.3 V ED044703
     K06D14T  C2006 02 25.38761 14 03 53.27 +18 01 18.3          19.7 R ED044H36
     K06D14T  C2006 02 25.40151 14 03 56.34 +18 01 30.7          20.4 R ED044H36
     K06D14T  C2006 02 25.41478 14 03 59.54 +18 01 42.5          19.9 R ED044H36
     K06D14T  C2006 02 25.46951 14 04 12.36 +18 02 33.9          19.7 V ED044G96
     K06D14T  C2006 02 25.47473 14 04 13.54 +18 02 38.6          19.9 V ED044G96
     K06D14T  C2006 02 25.47994 14 04 14.73 +18 02 43.0          20.1 V ED044G96
     K06D14T  C2006 02 25.48523 14 04 15.96 +18 02 47.9          19.9 V ED044G96

Observer details:
703 Catalina Sky Survey.  Observers R. A. Kowalski, A. R. Gibbs.  Measurers
    E. C. Beshore, E. J. Christensen, G. J. Garradd, A. D. Grauer, R. E. Hill,
    R. A. Kowalski, S. M. Larson, R. H. McNaught.  0.68-m Schmidt + CCD.
G96 Mt. Lemmon Survey.  Observer E. J. Christensen.  Measurers E. C. Beshore,
    E. J. Christensen, G. J. Garradd, A. R. Gibbs, A. D. Grauer, R. E. Hill,
    R. A. Kowalski, S. M. Larson, R. H. McNaught.  1.5-m reflector + CCD.
H36 Sandlot Observatory, Scranton.  Observer G. Hug.  0.30-m
    Schmidt-Cassegrain + CCD.

Orbital elements:
2006 DT14                                                Earth MOID = 0.1311 AU
Epoch 2006 Feb. 14.0 TT = JDT 2453780.5                 MPC
M 332.93006              (2000.0)            P               Q
n   0.31893201     Peri.  183.51434     -0.18849894     +0.97028381
a   2.1216349      Node    75.66321     -0.89717349     -0.10730319
e   0.6281951      Incl.    9.00913     -0.39943444     -0.21687637
P   3.09           H   19.8           G   0.15
From 15 observations 2006 Feb. 24-25.

Ephemeris:
2006 DT14                a,e,i = 2.12, 0.63, 9                   q = 0.7888
Date    TT    R. A. (2000) Decl.     Delta      r     Elong.  Phase     V
2006 02 24    13 58.55   +17 41.2    0.439    1.308   128.4    36.4    20.1
2006 03 06    14 44.65   +20 24.8    0.332    1.213   125.0    42.1    19.5
2006 03 16    15 59.33   +23 17.1    0.247    1.119   114.3    54.1    19.0
2006 03 26    18 00.11   +23 04.8    0.198    1.029    93.5    75.4    19.0
2006 04 05    20 17.08   +15 43.3    0.206    0.945    68.7    99.6    19.8
2006 04 15    21 53.75   +07 01.9    0.265    0.874    54.0   111.8    20.9
2006 04 25    22 54.69   +01 40.8    0.354    0.821    49.4   111.4    21.4
2006 05 05    23 38.20   -00 49.6    0.460    0.792    49.6   104.1    21.4
2006 05 15    00 13.72   -01 29.8    0.571    0.793    51.5    94.3    21.4
2006 05 25    00 44.98   -01 03.4    0.680    0.822    53.8    84.3    21.5
2006 06 04    01 13.11   -00 03.3    0.779    0.876    56.6    75.4    21.6
2006 06 14    01 38.37   +01 08.0    0.863    0.947    59.9    68.1    21.8
2006 06 24    02 00.83   +02 16.9    0.931    1.031    63.7    62.2    21.9
2006 07 04    02 20.40   +03 14.9    0.981    1.121    68.3    57.4    22.1
2006 07 14    02 36.99   +03 58.1    1.014    1.215    73.5    53.3    22.2
2006 07 24    02 50.47   +04 24.6    1.032    1.311    79.6    49.7    22.3

Brian G. Marsden             (C) Copyright 2006 MPC           M.P.E.C. 2006-D44

Read MPEC 2006-D43 Read MPEC 2006-D45


Our Web policy. Index to the CBAT/MPC/ICQ pages.


Valid HTML 4.01!